Wetbulb
50.62 50.47 50.84 51.09 51.67 51.92 52.15 52.45 52.25 52.31 52.66 52.80 53.19 53.30 53.26 54.07 54.57 51.42 48.49 51.17 50.06 54.96 56.08 48.65 47.15 46.70 45.78 43.41 46.09 45.74 35.31 32.99 36.01 37.29 39.42 43.96 41.72 46.57 47.94 45.53 46.86 47.53 46.65 50.32 58.24
50.23 50.33 50.44 50.85 51.31 51.59 51.92 51.90 51.96 52.39 52.57 52.77 52.91 53.24 52.86 53.92 49.73 48.46 56.23 56.83 55.54 54.80 48.40 45.17 43.64 44.76 40.09 41.19 42.58 40.08 34.10 36.00 41.88 41.48 39.51 41.55 40.07 41.80 44.10 43.81 44.06 45.25 51.16 59.56 60.90
49.67 49.78 50.14 50.47 50.56 51.28 51.69 52.00 52.14 52.36 52.40 52.59 52.88 53.00 52.76 52.27 46.15 46.81 57.67 55.15 54.73 53.76 49.34 46.47 45.42 43.22 38.73 39.40 40.18 40.45 35.89 41.37 43.29 45.62 43.25 40.49 39.43 41.09 40.74 41.93 43.16 44.19 45.63 55.73 58.02
49.33 49.39 49.63 50.07 50.48 51.11 51.48 51.69 52.20 52.47 52.78 52.30 52.39 52.77 52.45 48.71 33.60 48.49 57.27 56.56 55.96 51.72 46.33 44.21 42.42 38.42 36.83 36.26 40.40 35.01 40.47 42.89 44.04 43.90 40.71 39.79 41.61 39.44 39.66 42.74 46.92 45.36 46.48 47.76 56.25
48.77 48.86 49.19 49.71 50.24 50.69 50.89 51.36 52.05 52.34 52.38 52.40 52.37 52.29 48.37 43.22 41.17 51.35 57.45 54.06 50.00 47.45 44.30 41.73 39.10 38.31 34.46 35.81 37.02 34.52 38.19 39.94 40.74 40.76 39.90 40.38 37.89 37.64 38.41 41.62 44.13 44.30 46.50 45.59 52.84
48.52 48.58 48.88 49.47 49.96 50.17 50.36 51.13 52.27 52.23 53.14 53.15 51.96 51.36 44.65 35.37 45.28 48.69 47.84 48.16 46.78 44.06 41.03 41.55 39.38 39.95 36.10 35.36 33.22 36.21 37.44 38.57 39.28 39.50 39.86 37.08 36.77 36.10 38.12 42.94 41.32 42.16 41.82 43.36 45.50
48.19 48.42 48.88 49.24 49.44 49.61 49.98 51.00 52.16 53.32 53.73 53.57 52.39 48.95 43.74 38.52 44.49 45.20 45.32 43.47 44.23 43.40 40.57 42.14 42.31 38.67 37.85 34.29 38.42 37.74 33.36 36.38 38.08 38.98 36.25 37.23 34.00 35.13 39.51 37.51 39.07 39.45 39.52 40.90 43.88
48.01 48.05 48.54 48.82 49.01 49.34 49.86 50.94 52.11 53.53 52.84 52.49 52.37 45.63 39.02 44.85 41.89 44.09 44.79 43.59 44.79 44.59 43.81 44.08 43.52 40.12 37.24 37.92 35.90 31.90 30.97 27.60 36.94 39.25 39.56 35.87 29.59 38.08 38.90 35.89 37.69 38.24 37.19 38.03 40.53
47.73 47.95 48.34 48.52 48.47 48.88 49.56 50.82 51.63 53.57 52.56 52.25 46.00 42.49 36.39 47.13 40.89 42.62 43.02 41.73 42.80 43.79 43.82 46.38 41.69 35.83 36.17 29.85 25.83 28.38 22.13 26.90 31.14 37.87 36.04 33.64 30.12 37.88 40.12 37.56 37.60 36.90 37.10 38.62 39.06
47.55 47.77 48.04 48.07 47.90 48.59 49.63 50.53 50.52 50.37 51.42 51.24 49.40 37.43 41.60 36.84 40.90 42.22 42.77 43.77 40.79 40.76 40.42 39.14 35.60 29.52 28.50 26.28 20.61 24.26 24.29 28.00 28.08 33.17 34.56 31.21 29.99 35.97 38.07 37.54 37.40 38.12 37.50 36.97 38.14
47.27 47.69 47.81 47.58 47.63 48.55 44.97 41.39 39.16 37.38 39.28 36.78 37.16 37.64 40.02 42.80 43.10 41.17 43.32 41.66 40.79 37.61 30.20 34.72 28.81 25.67 28.31 29.32 30.02 28.18 26.46 25.52 29.56 34.02 30.57 29.55 29.64 34.50 37.60 37.87 37.14 38.26 37.10 35.35 35.17
47.31 47.44 47.60 46.97 47.19 46.94 40.60 35.60 35.15 36.47 31.67 39.28 39.73 40.39 42.55 42.95 37.78 39.45 42.76 35.81 34.80 29.35 32.43 30.55 27.05 32.41 33.94 33.19 30.77 28.35 26.36 25.06 29.20 32.83 30.75 29.99 30.52 34.14 35.61 34.47 34.23 34.52 35.71 35.62 36.69
47.11 47.31 47.04 46.26 46.74 39.87 35.51 35.81 40.62 40.15 32.76 36.25 40.34 40.04 40.13 42.20 37.96 36.99 39.89 36.43 32.34 29.46 29.76 27.13 31.43 35.08 33.52 30.52 29.07 27.52 26.40 25.53 26.13 29.10 29.13 27.13 26.20 29.33 33.46 35.54 36.46 36.10 36.74 36.85 36.63
46.84 47.05 45.76 45.99 38.02 35.20 33.42 38.38 40.33 40.25 22.73 29.21 35.42 37.54 39.32 39.43 34.12 40.44 40.93 36.43 32.69 29.44 29.52 28.06 33.13 32.11 30.44 29.65 30.15 24.92 30.14 29.19 27.83 24.13 17.77 26.51 15.61 25.43 30.02 31.69 33.79 34.54 34.69 35.33 36.23
46.57 46.61 44.55 44.02 33.65 32.24 35.04 38.42 39.94 34.99 7.34 29.50 34.05 41.21 38.84 34.07 34.61 35.00 39.16 35.81 29.84 29.90 28.51 27.14 28.68 28.45 28.32 29.70 32.02 27.86 30.74 28.02 27.52 22.91 21.03 21.00 16.29 23.25 29.66 28.40 29.80 31.37 32.51 33.73 35.62
46.27 46.29 43.35 37.10 34.31 34.20 36.87 39.04 37.36 17.03 8.50 24.58 32.71 30.30 31.13 33.38 33.48 34.79 34.72 36.34 34.40 29.13 28.44 28.19 31.90 29.62 29.34 31.19 30.81 32.05 28.60 26.53 25.39 22.66 6.73 20.28 19.51 20.77 24.84 28.60 28.19 30.65 30.78 32.02 33.22
46.04 45.83 39.81 37.47 28.68 35.22 38.24 33.87 15.96 7.64 22.12 17.49 24.94 27.88 27.23 28.02 29.69 30.28 28.36 25.90 24.37 17.66 20.26 25.57 26.03 29.34 31.63 27.25 30.08 29.01 22.60 4.21 5.98 4.98 8.14 22.24 20.27 21.59 27.40 29.12 29.51 29.20 29.07 29.99 31.65
45.70 44.68 38.54 37.04 35.12 36.82 35.40 21.35 7.91 5.39 9.78 27.14 26.25 26.69 24.63 26.36 27.51 27.18 25.87 22.62 24.58 24.40 19.75 17.10 14.80 26.51 30.41 27.80 26.22 26.12 23.02 10.59 1.61 7.32 13.96 23.60 17.86 21.59 27.61 28.84 29.04 31.22 30.43 30.36 30.16
43.48 34.46 33.46 35.28 36.35 37.33 26.13 7.79 11.45 13.94 23.21 24.28 24.60 17.36 18.16 25.53 23.70 24.43 21.80 22.51 23.11 24.89 19.64 17.23 20.56 28.00 28.66 29.48 29.22 24.12 19.95 26.29 9.98 6.48 9.46 18.58 24.40 27.09 27.58 25.15 25.47 28.25 28.82 27.93 29.30
33.39 30.31 31.44 35.76 36.70 31.38 17.76 16.54 16.03 27.62 26.75 25.71 17.48 16.90 7.13 12.35 20.18 21.26 21.73 23.95 24.57 25.73 26.66 22.93 15.44 25.22 27.65 28.54 28.23 26.43 28.01 17.38 12.86 3.71 7.34 14.18 19.89 21.69 21.98 20.98 23.19 24.56 26.04 26.73 28.33
32.32 26.68 33.53 35.83 34.63 24.58 10.78 11.48 24.49 26.87 26.46 24.02 18.41 14.04 19.25 11.23 19.13 18.00 20.35 23.36 23.91 23.17 24.98 21.95 20.44 20.54 24.85 22.90 20.93 20.66 17.40 19.10 20.82 16.95 6.27 4.14 14.93 24.67 21.64 21.89 21.59 24.63 26.24 25.90 26.91
28.96 16.18 32.56 34.30 19.32 14.55 10.09 22.70 28.09 24.51 25.05 25.04 24.42 23.11 18.43 17.52 14.04 17.92 19.14 21.98 24.57 24.06 19.64 22.49 19.88 12.22 17.89 23.04 25.00 23.82 23.16 20.91 10.86 10.24 13.63 12.36 14.10 26.30 23.41 23.39 24.05 25.12 26.89 27.21 27.12
24.15 25.19 32.71 32.34 11.54 6.26 14.89 22.74 24.32 23.25 23.32 23.42 22.58 25.32 22.81 12.92 8.08 15.64 20.06 24.18 25.16 23.57 20.08 22.03 13.40 2.72 10.17 17.49 20.89 18.29 20.66 22.01 16.04 12.32 8.54 5.37 14.16 24.72 24.01 22.20 23.53 26.01 28.42 29.20 29.57
25.18 15.19 21.03 25.25 24.23 18.05 12.12 17.30 19.47 24.56 23.47 24.30 22.97 23.36 19.04 12.37 18.14 8.21 19.19 23.86 24.98 24.28 27.78 24.57 15.27 8.65 6.20 12.94 15.53 14.16 17.84 18.74 10.71 0.90 1.06 10.63 7.96 19.17 23.07 18.60 21.75 22.36 25.58 27.67 28.32
22.37 18.07 17.85 11.38 14.96 20.55 21.89 19.37 19.35 16.47 22.86 23.02 21.03 21.18 17.98 6.13 6.87 5.63 14.20 18.87 22.06 25.62 23.38 19.14 3.85 9.40 11.79 14.04 14.46 14.98 14.35 15.21 11.15 5.50 4.36 11.78 7.38 12.07 11.02 13.70 20.10 21.14 23.15 23.90 25.65
22.56 19.13 18.54 11.01 22.28 21.50 20.85 17.02 18.23 18.43 19.78 19.63 15.34 20.57 17.56 9.87 12.79 6.68 8.88 11.93 15.78 16.50 16.27 17.80 5.50 13.01 5.23 14.69 14.86 11.85 14.89 15.30 15.31 14.02 11.33 13.88 12.57 21.52 23.30 22.87 19.31 18.37 18.73 20.54 19.13
28.58 28.39 22.53 21.47 20.39 16.08 17.85 17.78 20.64 21.69 22.36 23.52 20.66 17.07 18.87 19.73 18.90 20.46 20.97 21.58 19.46 14.29 12.28 10.72 7.94 2.66 0.20 13.04 9.79 2.15 11.40 13.82 14.30 11.23 10.69 7.19 14.46 18.41 16.65 18.81 14.43 17.35 16.87 16.10 18.03
MSLP
1022.35 1022.23 1022.09 1021.76 1021.57 1021.22 1020.92 1020.60 1020.46 1020.19 1020.01 1019.90 1019.83 1019.66 1019.47 1019.11 1018.62 1018.17 1017.62 1017.00 1016.66 1016.53 1016.45 1016.52 1016.47 1016.68 1016.75 1016.75 1016.59 1017.01 1017.82 1017.66 1016.78 1016.07 1015.25 1014.31 1014.12 1012.83 1012.25 1011.64 1011.18 1011.01 1011.08 1010.92 1011.05
1022.39 1022.15 1021.82 1021.59 1021.30 1021.02 1020.69 1020.41 1020.22 1019.97 1019.78 1019.70 1019.57 1019.48 1019.46 1019.11 1018.95 1017.97 1017.15 1016.61 1016.37 1016.37 1016.63 1016.70 1016.61 1016.78 1017.18 1016.95 1016.85 1017.03 1017.52 1016.94 1016.11 1015.40 1015.01 1014.60 1014.43 1014.05 1013.34 1012.60 1011.96 1011.68 1011.66 1011.61 1011.57
1022.26 1022.14 1021.93 1021.48 1021.22 1020.95 1020.58 1020.29 1020.00 1019.63 1019.44 1019.57 1019.45 1019.33 1019.48 1019.33 1018.93 1017.54 1016.91 1016.55 1016.39 1016.44 1016.77 1016.80 1016.61 1016.87 1017.20 1017.14 1016.97 1016.74 1016.58 1016.23 1015.60 1015.09 1014.87 1014.60 1014.39 1014.08 1013.77 1013.30 1012.59 1012.58 1012.43 1012.13 1012.21
1022.27 1022.01 1021.77 1021.42 1021.00 1020.75 1020.43 1020.19 1019.82 1019.49 1019.30 1019.15 1019.36 1019.22 1019.15 1019.49 1018.70 1017.37 1016.97 1016.54 1016.38 1016.29 1016.62 1016.65 1016.68 1017.10 1017.44 1017.38 1017.02 1016.92 1016.18 1015.73 1015.21 1014.93 1015.02 1014.73 1014.32 1014.06 1013.92 1013.45 1012.73 1012.54 1012.75 1012.57 1012.63
1022.19 1022.01 1021.62 1021.25 1020.86 1020.58 1020.21 1020.01 1019.67 1019.31 1019.08 1019.04 1019.11 1019.12 1019.33 1019.09 1017.87 1017.23 1017.14 1016.76 1016.43 1016.49 1016.80 1016.81 1017.02 1017.45 1017.61 1017.63 1017.36 1017.08 1016.72 1016.10 1015.42 1015.07 1014.93 1014.74 1014.34 1014.24 1013.57 1013.23 1012.67 1012.42 1012.63 1012.67 1012.86
1022.16 1021.83 1021.51 1021.18 1020.77 1020.33 1020.03 1019.67 1019.37 1019.01 1018.68 1018.64 1019.05 1019.15 1019.53 1018.66 1017.44 1017.17 1017.38 1017.04 1016.59 1016.69 1016.99 1017.08 1017.26 1017.50 1017.79 1017.66 1017.81 1017.46 1017.06 1016.39 1015.56 1015.20 1014.72 1014.77 1014.32 1014.34 1013.28 1012.99 1012.85 1012.74 1012.49 1012.73 1012.78
1022.04 1021.75 1021.38 1021.12 1020.66 1020.21 1019.79 1019.46 1019.07 1018.62 1018.63 1018.51 1018.82 1019.15 1019.16 1018.10 1017.51 1017.20 1017.35 1017.40 1016.93 1016.86 1017.19 1017.27 1017.36 1017.60 1018.09 1017.95 1017.70 1017.51 1017.37 1016.45 1015.70 1015.06 1014.66 1014.38 1014.17 1013.53 1012.45 1012.83 1012.79 1012.76 1012.66 1012.37 1012.39
1021.69 1021.46 1021.26 1020.92 1020.47 1019.95 1019.60 1019.07 1018.84 1018.66 1018.73 1018.65 1018.84 1019.27 1018.52 1017.53 1017.64 1017.51 1017.47 1017.36 1017.25 1017.06 1017.21 1017.25 1017.34 1017.89 1018.23 1018.08 1018.15 1018.06 1017.89 1017.24 1015.60 1015.09 1014.56 1014.71 1014.25 1013.24 1012.88 1013.03 1013.20 1012.99 1012.92 1012.62 1012.15
1021.58 1021.33 1021.15 1020.58 1020.16 1019.71 1019.40 1018.83 1018.74 1018.66 1018.78 1018.82 1019.25 1019.02 1018.28 1017.52 1017.61 1017.44 1017.59 1017.59 1017.45 1017.37 1017.33 1017.47 1017.56 1018.24 1018.74 1018.95 1019.09 1018.87 1018.62 1017.73 1016.51 1015.60 1015.51 1015.44 1014.88 1013.79 1013.24 1013.38 1013.38 1013.10 1012.98 1012.91 1012.44
1021.59 1021.01 1020.79 1020.44 1019.74 1019.40 1018.99 1018.56 1018.67 1018.79 1018.91 1018.98 1019.02 1019.25 1018.22 1017.79 1017.67 1017.60 1017.57 1017.66 1017.82 1017.77 1017.89 1018.07 1018.54 1018.87 1019.54 1019.86 1019.52 1019.22 1018.97 1018.10 1017.45 1016.16 1015.69 1015.69 1015.22 1014.23 1013.85 1013.82 1013.51 1013.22 1013.04 1013.16 1013.07
1021.34 1021.03 1020.57 1020.25 1019.57 1019.26 1018.88 1018.84 1019.43 1019.70 1019.34 1019.07 1018.94 1018.70 1018.24 1017.98 1017.76 1017.73 1017.65 1017.85 1018.02 1018.28 1018.60 1018.73 1019.35 1019.36 1019.17 1019.37 1019.25 1019.11 1018.97 1018.60 1017.67 1016.90 1016.82 1016.29 1015.90 1014.54 1014.16 1014.04 1013.68 1013.50 1013.85 1014.04 1014.04
1021.33 1020.90 1020.53 1020.12 1019.47 1019.51 1019.06 1020.03 1020.63 1021.06 1020.30 1019.20 1018.73 1018.56 1018.24 1018.14 1018.04 1017.88 1017.77 1018.22 1018.41 1018.75 1018.92 1019.40 1019.18 1018.53 1018.73 1018.96 1019.08 1019.11 1019.04 1018.56 1017.62 1016.98 1017.06 1016.69 1016.31 1015.51 1015.29 1015.60 1015.07 1015.21 1015.29 1015.25 1014.84
1021.31 1020.82 1020.37 1020.01 1019.63 1019.99 1020.25 1020.56 1020.68 1020.87 1020.41 1019.37 1018.64 1018.31 1018.32 1018.34 1018.13 1017.98 1018.13 1018.21 1018.57 1018.92 1019.21 1019.40 1018.60 1017.99 1018.41 1018.58 1018.70 1018.72 1018.71 1018.62 1018.42 1017.81 1017.55 1017.33 1016.87 1016.49 1016.52 1016.19 1016.25 1016.56 1016.46 1016.11 1015.91
1021.14 1020.69 1020.24 1020.06 1020.13 1020.53 1021.18 1021.09 1020.99 1021.10 1020.90 1019.90 1018.82 1018.08 1018.30 1018.18 1018.37 1018.08 1017.98 1018.53 1018.79 1018.94 1019.11 1019.00 1018.21 1018.06 1018.15 1018.21 1018.30 1018.59 1018.24 1018.61 1018.83 1019.04 1019.28 1018.56 1018.86 1017.73 1017.55 1017.27 1017.27 1017.71 1017.52 1017.35 1017.04
1021.06 1020.62 1020.23 1020.20 1020.61 1021.17 1021.56 1021.10 1021.18 1021.36 1021.27 1020.15 1018.88 1018.02 1018.04 1018.62 1018.57 1018.38 1018.36 1018.47 1018.89 1019.12 1019.35 1018.73 1018.21 1018.00 1017.95 1017.83 1017.93 1018.25 1018.38 1019.00 1019.53 1020.09 1020.45 1020.02 1020.26 1018.42 1018.10 1018.52 1018.78 1018.88 1018.79 1018.52 1018.11
1020.93 1020.73 1020.52 1020.52 1021.04 1021.50 1021.16 1021.33 1021.59 1022.23 1021.94 1020.81 1019.73 1019.05 1018.87 1018.94 1018.90 1018.69 1018.88 1018.91 1019.26 1019.52 1019.43 1019.04 1018.41 1018.14 1017.85 1017.69 1017.87 1018.36 1019.01 1019.99 1020.86 1021.49 1022.02 1020.72 1020.34 1019.12 1018.69 1019.00 1019.69 1019.85 1019.70 1019.41 1018.94
1020.89 1020.56 1020.94 1021.06 1021.47 1021.18 1021.30 1021.71 1022.98 1023.49 1023.17 1022.37 1021.60 1020.99 1020.33 1020.02 1019.73 1019.51 1019.88 1020.26 1020.59 1020.80 1020.51 1019.66 1018.70 1018.10 1017.93 1018.07 1018.27 1018.91 1020.29 1022.35 1023.18 1023.67 1022.63 1021.23 1020.90 1020.36 1019.78 1020.02 1020.22 1020.59 1020.70 1020.40 1019.94
1020.46 1020.40 1020.60 1020.95 1021.11 1020.98 1021.75 1022.73 1024.35 1024.37 1023.94 1022.98 1022.68 1022.31 1022.09 1021.59 1021.06 1020.74 1021.08 1021.52 1021.54 1021.70 1021.81 1020.98 1019.76 1018.65 1018.18 1018.14 1018.47 1019.46 1020.81 1022.57 1023.43 1024.26 1023.34 1021.61 1020.77 1020.89 1020.64 1020.74 1020.74 1020.97 1021.25 1021.02 1020.62
1020.44 1020.92 1020.81 1020.82 1021.11 1021.08 1022.08 1023.67 1023.73 1023.94 1023.66 1023.50 1023.65 1023.71 1023.61 1023.07 1022.65 1022.17 1022.24 1022.39 1022.31 1022.34 1022.39 1021.89 1020.76 1019.42 1018.82 1018.60 1018.92 1019.86 1020.86 1021.55 1023.30 1025.20 1024.19 1022.22 1021.54 1021.56 1021.18 1021.36 1021.30 1021.37 1021.44 1021.49 1021.41
1021.13 1021.27 1020.83 1020.40 1020.79 1021.62 1022.96 1023.93 1023.79 1023.16 1023.14 1023.33 1023.97 1024.81 1024.89 1024.44 1023.96 1023.35 1023.01 1022.94 1022.87 1022.80 1022.76 1022.72 1022.25 1020.80 1019.89 1019.46 1019.52 1019.91 1020.87 1022.31 1023.96 1025.08 1024.68 1022.48 1021.30 1019.96 1021.00 1021.47 1021.71 1021.78 1021.93 1021.92 1021.84
1021.33 1021.66 1020.90 1020.64 1020.84 1022.23 1023.90 1024.29 1023.59 1022.90 1022.77 1023.29 1023.84 1024.79 1025.41 1025.43 1025.04 1024.41 1023.87 1023.63 1023.14 1023.16 1023.15 1023.39 1023.36 1022.39 1021.39 1021.03 1021.13 1021.28 1021.66 1022.82 1023.76 1024.36 1024.32 1023.41 1020.98 1019.29 1020.38 1021.43 1021.71 1021.98 1022.10 1022.16 1022.02
1021.47 1022.31 1021.09 1020.98 1022.35 1024.13 1024.64 1023.92 1023.17 1022.91 1022.83 1023.09 1023.59 1024.54 1025.41 1025.99 1025.95 1025.29 1024.39 1023.89 1023.60 1023.48 1023.90 1024.31 1024.51 1024.39 1023.32 1022.61 1022.53 1022.49 1022.89 1023.70 1024.72 1025.20 1024.93 1023.91 1021.15 1020.02 1020.64 1021.28 1021.55 1021.87 1022.04 1022.10 1021.98
1021.81 1021.96 1021.18 1021.25 1023.18 1024.99 1024.87 1024.13 1023.39 1023.26 1023.16 1023.34 1023.80 1024.43 1025.45 1026.27 1026.77 1026.15 1025.10 1024.57 1024.30 1024.32 1024.56 1024.98 1025.62 1025.96 1025.05 1024.15 1023.71 1023.75 1024.03 1024.80 1025.68 1026.47 1026.00 1025.08 1021.92 1021.00 1020.87 1021.27 1021.71 1021.80 1022.09 1022.10 1021.88
1022.02 1022.86 1022.69 1022.69 1023.37 1023.98 1024.94 1024.34 1023.82 1023.31 1023.33 1023.35 1023.82 1024.55 1025.70 1026.49 1026.74 1026.77 1026.05 1025.33 1025.09 1025.10 1025.22 1025.52 1026.47 1026.70 1026.50 1025.97 1025.68 1025.24 1025.06 1025.55 1026.62 1027.67 1026.81 1024.50 1023.12 1022.25 1021.76 1021.56 1021.72 1021.99 1021.94 1022.20 1021.95
1021.69 1022.91 1023.20 1023.88 1024.05 1023.97 1023.91 1023.87 1023.75 1023.68 1023.41 1023.63 1024.05 1024.63 1025.65 1027.07 1027.40 1027.30 1026.77 1026.26 1025.85 1025.68 1025.90 1026.65 1027.56 1027.55 1027.23 1026.91 1026.51 1025.83 1025.16 1025.78 1026.35 1026.57 1026.74 1023.77 1024.06 1021.89 1022.43 1021.97 1021.23 1021.72 1022.05 1022.21 1022.22
1021.30 1022.35 1023.12 1023.48 1023.50 1023.72 1023.66 1023.68 1023.23 1023.48 1023.41 1023.74 1023.97 1024.37 1025.30 1026.25 1026.44 1026.84 1026.84 1026.98 1026.51 1026.64 1026.75 1027.35 1027.71 1027.91 1027.69 1027.41 1026.90 1025.97 1024.45 1025.24 1025.22 1025.41 1025.44 1024.36 1023.01 1021.99 1021.73 1021.86 1021.90 1021.94 1021.82 1021.50 1021.16
1020.64 1020.96 1021.36 1023.27 1023.60 1023.75 1023.34 1022.93 1022.76 1023.14 1023.30 1023.17 1023.71 1024.31 1024.88 1025.00 1025.57 1025.78 1026.17 1026.38 1026.64 1026.87 1027.36 1027.78 1028.21 1028.77 1028.05 1027.47 1027.12 1025.52 1023.10 1023.65 1023.63 1023.63 1023.79 1023.60 1021.37 1021.73 1021.40 1021.46 1021.61 1021.61 1021.48 1021.55 1021.27
Wind_Speed
11 12 13 13 15 15 15 14 14 13 13 13 13 13 13 13 13 4 3 2 2 4 4 3 1 3 2 2 2 3 1 3 5 5 6 6 8 7 8 2 4 0 3 4 6
12 12 12 13 15 15 16 14 14 13 12 12 12 12 12 12 4 4 4 6 2 2 3 4 2 2 3 3 2 4 3 7 5 3 3 5 2 5 7 8 4 3 4 6 4
12 13 14 14 15 16 16 16 14 13 11 12 12 11 11 9 3 3 5 3 2 3 2 2 1 2 2 2 4 4 6 4 6 8 3 6 7 2 2 6 2 2 4 3 3
11 12 14 15 15 16 16 16 15 14 14 11 10 9 9 2 2 1 3 3 2 2 1 2 4 2 1 3 4 5 7 5 5 4 2 5 3 6 5 9 7 7 4 2 6
11 13 14 15 16 17 16 16 16 14 11 9 7 5 4 2 3 2 3 3 1 2 3 3 3 1 1 4 6 3 5 8 8 8 5 4 9 7 8 10 12 8 5 5 6
12 13 15 16 17 17 16 15 15 10 10 7 4 1 1 2 0 3 1 2 3 3 2 3 3 1 2 2 0 5 6 8 6 8 9 6 7 2 8 6 7 9 10 7 7
12 14 15 17 18 17 15 14 10 9 9 4 4 3 1 3 2 2 2 1 1 2 3 2 3 3 1 3 4 5 8 8 5 6 6 4 9 8 12 1 7 10 11 10 9
12 14 16 17 18 16 14 12 7 6 5 3 5 2 3 1 2 1 1 1 1 3 3 2 4 3 1 1 6 3 2 4 3 4 5 6 9 5 5 1 10 9 9 8 11
13 15 17 17 17 16 14 10 7 7 1 4 1 2 3 1 1 3 0 2 1 1 1 2 4 3 3 2 4 3 2 3 8 4 4 4 9 9 8 3 9 9 8 8 9
13 14 16 17 16 14 14 7 3 4 2 3 4 2 2 2 1 2 2 0 0 2 3 2 4 4 3 3 3 2 2 4 6 6 11 10 9 11 8 9 11 12 9 7 8
13 15 16 16 15 13 6 3 4 2 2 2 1 2 2 3 1 1 1 1 1 1 2 2 3 6 8 7 4 2 4 6 6 7 3 5 9 17 11 9 12 13 8 9 9
13 15 17 15 12 12 4 6 3 2 2 2 2 2 3 1 0 2 1 2 2 3 1 4 6 8 6 5 5 5 6 7 7 2 2 4 12 10 9 13 12 14 13 12 14
13 15 17 13 8 5 4 5 1 4 3 1 3 1 2 2 2 4 4 2 4 3 4 6 5 5 6 4 5 4 5 4 6 5 3 4 7 4 6 15 14 13 12 13 15
13 15 14 15 4 0 3 5 3 2 6 3 2 1 1 1 1 2 2 2 2 6 5 6 8 6 6 5 5 2 4 4 4 5 2 4 5 4 6 11 12 11 13 14 15
13 15 12 6 2 3 2 4 4 2 4 4 1 0 2 2 1 2 1 2 3 2 3 6 3 2 3 5 5 7 2 1 2 2 4 4 5 5 5 7 10 12 14 14 15
12 14 10 4 3 1 2 3 2 10 8 0 3 4 2 3 2 2 2 3 1 2 2 7 3 2 5 3 2 2 2 6 4 3 3 4 5 5 4 10 6 9 12 13 14
11 11 4 1 1 1 2 3 8 7 5 5 1 3 2 1 2 2 3 4 0 3 3 5 3 2 3 1 2 3 6 4 6 4 7 1 3 2 10 9 7 7 8 9 11
11 7 1 2 1 3 3 7 6 3 5 1 1 2 2 3 2 2 4 3 2 2 1 2 6 4 2 4 6 5 7 7 7 4 4 3 4 5 8 7 6 7 6 9 12
8 3 1 1 2 3 6 5 9 7 5 4 3 4 4 3 2 2 2 4 2 1 6 4 5 4 2 1 5 3 4 3 6 2 4 4 6 2 5 6 6 6 8 9 10
2 1 2 1 4 5 7 5 3 3 3 2 5 3 4 4 1 0 4 2 2 1 1 2 3 2 4 2 1 3 1 2 3 2 5 4 6 5 10 4 3 5 6 6 6
3 3 3 3 3 6 5 6 4 3 2 3 4 2 2 3 1 2 1 1 1 1 2 1 3 4 3 1 2 4 2 2 2 5 6 2 7 3 14 7 6 5 3 4 5
3 2 3 3 6 2 4 6 2 3 2 1 2 3 5 3 2 2 3 1 1 1 4 0 2 3 6 2 3 2 1 2 5 6 3 2 7 13 12 7 6 4 0 3 4
3 2 2 4 4 2 4 2 2 3 3 3 3 3 2 5 1 3 1 1 4 2 3 1 1 3 7 5 4 3 2 3 3 2 5 5 7 8 11 7 5 4 1 5 5
3 2 5 4 1 7 5 3 3 0 2 3 3 4 4 1 2 2 1 1 1 2 5 3 1 6 6 3 2 5 4 1 4 2 2 10 7 7 11 10 6 4 5 6 6
2 4 4 3 3 4 3 7 6 5 3 2 1 4 5 3 3 2 2 2 2 4 2 5 4 4 6 5 4 10 17 9 11 7 9 16 8 8 7 10 16 4 6 7 8
6 6 2 2 2 6 1 6 8 4 7 4 5 6 5 7 8 7 6 3 6 3 4 2 4 2 4 5 7 15 21 14 17 15 15 20 26 15 17 9 5 9 10 10 9
1 2 6 4 3 5 5 6 8 7 4 3 7 5 5 6 8 7 8 5 6 7 6 5 5 3 7 4 1 13 13 19 16 9 12 15 25 3 10 10 10 11 8 9 10
Wind_Direction
8 6 359 351 348 346 343 341 336 330 325 321 316 315 315 316 315 295 254 244 241 322 357 309 348 313 350 287 203 111 56 233 222 195 249 21 15 323 311 336 330 146 144 217 136
6 1 352 349 349 343 341 338 332 327 324 319 314 315 311 322 299 253 284 291 235 10 58 38 13 0 334 274 271 138 167 217 228 235 305 309 354 310 346 345 293 30 352 15 109
4 357 351 348 345 339 339 334 328 325 322 317 313 313 316 330 292 236 313 51 93 74 147 236 293 175 221 298 244 205 208 217 267 283 333 305 312 295 280 288 258 331 355 277 200
359 352 348 344 343 338 337 332 326 325 318 311 303 311 320 347 146 245 321 41 80 112 38 29 45 64 252 246 301 294 244 199 248 249 253 271 269 283 236 231 267 277 247 235 240
353 347 343 342 338 336 335 330 326 323 316 310 297 316 358 254 251 244 266 343 47 52 63 68 80 104 232 324 342 265 322 331 321 310 264 231 258 244 253 272 280 285 215 216 223
349 345 344 339 336 334 332 331 329 327 307 302 285 25 28 252 174 167 265 340 74 71 41 67 122 161 265 273 152 309 292 297 302 302 277 261 259 165 263 233 269 291 293 238 228
349 345 343 338 336 333 332 334 339 331 329 280 187 156 297 244 279 192 256 253 82 107 97 56 110 88 339 327 335 289 316 321 263 265 259 176 302 231 269 163 283 293 287 270 222
346 346 341 338 336 335 333 335 323 3 11 102 147 86 240 318 328 331 268 340 38 101 107 133 102 107 205 294 348 321 344 323 288 311 264 117 270 293 301 336 286 294 309 297 273
348 347 339 340 336 333 328 326 305 324 5 128 104 133 288 356 147 280 260 230 152 79 43 104 82 122 15 76 14 357 249 278 315 11 30 17 299 305 316 267 276 289 296 304 300
343 343 340 337 336 332 328 321 265 348 309 204 264 13 265 214 242 322 292 174 198 106 45 76 50 84 41 78 205 177 234 260 267 295 338 318 281 301 303 322 302 297 291 284 292
343 340 341 337 339 336 350 30 49 11 26 195 112 281 20 329 59 289 298 347 127 39 143 244 97 199 207 199 243 209 240 249 253 258 261 287 293 292 299 289 284 294 329 12 23
338 340 339 336 340 348 72 82 125 188 103 253 263 276 236 160 282 238 86 160 162 235 159 33 242 223 209 211 215 230 249 269 292 274 305 295 285 307 19 42 45 62 50 34 29
339 341 339 335 332 32 73 112 295 163 112 309 216 233 188 134 251 231 148 200 208 228 209 178 251 93 154 221 242 226 224 242 250 325 296 325 320 27 64 62 59 51 53 42 38
338 342 346 334 63 99 43 337 335 203 74 283 171 192 188 169 255 231 173 170 255 225 229 228 247 224 235 229 178 263 223 224 281 27 244 54 278 328 94 68 54 38 33 29 24
337 344 347 44 167 47 342 326 296 35 32 272 136 152 290 184 181 204 38 80 240 283 83 255 208 188 177 212 158 224 154 258 279 329 7 337 94 261 142 75 55 49 36 28 25
342 346 353 31 49 104 358 359 37 46 262 240 357 354 56 31 342 88 74 41 256 288 262 242 314 225 216 221 220 156 66 40 41 99 21 245 147 276 191 132 89 64 43 31 24
336 344 11 69 241 306 76 67 46 126 318 291 326 10 48 320 330 84 90 28 140 65 313 313 228 205 170 218 356 110 65 334 354 7 218 81 146 345 75 75 84 79 44 26 17
328 327 324 174 269 118 67 56 88 245 220 346 2 328 173 8 250 333 117 155 60 132 167 168 317 170 194 197 186 177 157 161 219 194 253 249 223 148 101 90 58 73 55 31 16
357 2 42 222 167 89 81 73 200 194 185 157 56 79 313 342 26 19 87 185 170 118 186 174 264 328 356 268 128 213 177 185 101 28 66 217 94 118 122 67 46 74 50 29 9
54 25 265 169 130 74 76 219 158 167 155 158 179 141 190 261 332 167 195 226 179 67 120 172 304 358 298 346 21 169 182 69 355 184 240 255 196 205 159 131 62 65 47 17 353
67 61 268 92 77 56 155 216 190 141 133 154 187 146 257 195 224 227 218 0 114 64 66 77 141 281 324 47 51 350 340 11 172 162 183 201 246 186 137 138 101 104 45 353 339
112 67 285 103 57 34 147 179 150 145 117 160 142 117 172 174 188 229 212 241 62 100 142 16 156 235 251 342 20 76 327 122 149 253 261 165 261 144 139 128 89 117 292 292 312
136 203 318 99 131 302 302 96 94 129 178 174 174 143 132 174 28 226 96 98 36 85 163 206 300 9 338 356 27 44 53 105 108 87 237 152 258 170 150 122 68 21 253 286 300
96 79 331 48 138 136 139 207 148 83 142 142 145 106 93 79 70 229 169 36 38 158 147 70 153 180 193 143 81 285 251 251 127 146 247 237 305 256 244 320 324 251 222 249 255
71 226 191 206 296 132 129 156 148 180 149 151 217 187 162 175 16 230 293 315 258 226 183 136 200 186 233 228 242 267 272 263 229 211 204 269 245 255 276 300 307 203 229 216 222
142 142 1 166 143 115 174 218 165 184 153 206 163 180 163 164 184 204 160 183 212 341 154 192 250 184 280 252 257 269 261 259 252 242 247 260 266 276 266 257 259 276 286 292 291
182 43 102 188 131 105 219 193 183 148 229 189 162 133 190 217 197 211 194 200 200 169 200 162 146 85 259 201 289 280 254 238 247 219 212 239 252 216 261 255 241 253 257 260 273